EN

Hourly Weather La Dorada

Today, 30 July, Friday

Time Temperature Precipitation Wind Pressure Humidity
00:00 +25°C° 0.5 mm 1 mps 742 mmHg 91%
01:00 +24°C° 0 mm 1 mps 742 mmHg 94%
02:00 +24°C° 0 mm 1 mps 742 mmHg 94%
03:00 +24°C° 0 mm 1 mps 742 mmHg 94%
04:00 +24°C° 0 mm 1 mps 742 mmHg 94%
05:00 +22°C° 0 mm 0 mps 743 mmHg 91%
06:00 +23°C° 0 mm 0 mps 743 mmHg 89%
07:00 +23°C° 0 mm 0 mps 744 mmHg 86%
08:00 +28°C° 0 mm 1 mps 744 mmHg 74%
09:00 +31°C° 0 mm 1 mps 744 mmHg 61%
10:00 +34°C° 0 mm 2 mps 744 mmHg 49%
11:00 +36°C° 0 mm 2 mps 743 mmHg 44%
12:00 +37°C° 0 mm 3 mps 742 mmHg 40%
13:00 +38°C° 0 mm 3 mps 741 mmHg 35%
14:00 +38°C° 0 mm 3 mps 740 mmHg 36%
15:00 +38°C° 0 mm 3 mps 739 mmHg 37%
16:00 +38°C° 0 mm 3 mps 739 mmHg 37%
17:00 +36°C° 0 mm 2 mps 740 mmHg 46%
18:00 +32°C° 0 mm 2 mps 740 mmHg 54%
19:00 +30°C° 0 mm 1 mps 741 mmHg 63%
20:00 +29°C° 0.1 mm 1 mps 742 mmHg 67%
21:00 +28°C° 0.1 mm 1 mps 742 mmHg 72%
22:00 +27°C° 0.1 mm 1 mps 743 mmHg 76%
23:00 +26°C° 0.5 mm 1 mps 743 mmHg 79%

Tomorrow, 31 July, Saturday

Time Temperature Precipitation Wind Pressure Humidity
00:00 +26°C° 0.5 mm 1 mps 743 mmHg 83%
01:00 +23°C° 0.5 mm 0 mps 743 mmHg 86%
02:00 +23°C° 0.1 mm 0 mps 743 mmHg 88%
03:00 +23°C° 0.1 mm 0 mps 743 mmHg 89%
04:00 +22°C° 0.1 mm 0 mps 744 mmHg 91%
05:00 +23°C° 0 mm 0 mps 744 mmHg 90%
06:00 +23°C° 0 mm 0 mps 744 mmHg 88%
07:00 +24°C° 0 mm 0 mps 745 mmHg 87%
08:00 +26°C° 0 mm 0 mps 744 mmHg 75%
09:00 +31°C° 0 mm 1 mps 744 mmHg 64%
10:00 +33°C° 0 mm 1 mps 744 mmHg 52%
11:00 +34°C° 0 mm 1 mps 743 mmHg 47%
12:00 +36°C° 0 mm 1 mps 742 mmHg 42%
13:00 +38°C° 0 mm 2 mps 741 mmHg 37%
14:00 +38°C° 0 mm 2 mps 740 mmHg 37%
15:00 +38°C° 0 mm 2 mps 740 mmHg 37%
16:00 +38°C° 0 mm 2 mps 739 mmHg 37%
17:00 +36°C° 0 mm 2 mps 740 mmHg 48%
18:00 +32°C° 0 mm 1 mps 740 mmHg 59%
19:00 +29°C° 0 mm 1 mps 741 mmHg 70%
20:00 +29°C° 0.1 mm 1 mps 741 mmHg 72%
21:00 +28°C° 0.1 mm 1 mps 742 mmHg 74%
22:00 +27°C° 0.1 mm 1 mps 743 mmHg 77%
23:00 +27°C° 0.1 mm 1 mps 742 mmHg 77%

Day after tomorrow, 1 August, Sunday

Time Temperature Precipitation Wind Pressure Humidity
00:00 +26°C° 0.1 mm 1 mps 742 mmHg 78%
01:00 +26°C° 0.1 mm 1 mps 742 mmHg 79%
02:00 +26°C° 0 mm 1 mps 742 mmHg 79%
03:00 +25°C° 0 mm 1 mps 742 mmHg 79%
04:00 +25°C° 0 mm 1 mps 742 mmHg 79%
05:00 +25°C° 0 mm 1 mps 743 mmHg 77%
06:00 +26°C° 0 mm 1 mps 743 mmHg 75%
07:00 +26°C° 0 mm 1 mps 743 mmHg 73%
08:00 +29°C° 0 mm 2 mps 743 mmHg 62%
09:00 +33°C° 0 mm 3 mps 743 mmHg 51%
10:00 +36°C° 0 mm 4 mps 743 mmHg 40%
11:00 +37°C° 0 mm 4 mps 742 mmHg 37%
12:00 +38°C° 0 mm 4 mps 741 mmHg 34%
13:00 +41°C° 0 mm 5 mps 740 mmHg 31%
14:00 +40°C° 0 mm 4 mps 740 mmHg 33%
15:00 +40°C° 0 mm 4 mps 740 mmHg 35%
16:00 +38°C° 0 mm 4 mps 739 mmHg 36%
17:00 +35°C° 0.2 mm 3 mps 740 mmHg 49%
18:00 +31°C° 0.2 mm 2 mps 740 mmHg 61%
19:00 +28°C° 0.2 mm 2 mps 741 mmHg 74%
20:00 +28°C° 0.3 mm 2 mps 742 mmHg 75%
21:00 +27°C° 0.3 mm 1 mps 743 mmHg 76%
22:00 +27°C° 0.3 mm 1 mps 743 mmHg 77%
23:00 +26°C° 0 mm 1 mps 743 mmHg 78%

2 August, Monday

Time Temperature Precipitation Wind Pressure Humidity
00:00 +26°C° 0 mm 1 mps 743 mmHg 78%
01:00 +24°C° 0 mm 0 mps 743 mmHg 79%
02:00 +25°C° 0 mm 1 mps 743 mmHg 78%
03:00 +25°C° 0 mm 1 mps 743 mmHg 77%
04:00 +25°C° 0 mm 1 mps 743 mmHg 75%
05:00 +26°C° 0 mm 1 mps 743 mmHg 74%
06:00 +26°C° 0 mm 1 mps 744 mmHg 72%
07:00 +26°C° 0 mm 1 mps 744 mmHg 71%
08:00 +29°C° 0 mm 2 mps 744 mmHg 60%
09:00 +33°C° 0 mm 3 mps 744 mmHg 50%
10:00 +36°C° 0 mm 4 mps 744 mmHg 39%
11:00 +37°C° 0 mm 4 mps 743 mmHg 36%
12:00 +38°C° 0 mm 4 mps 742 mmHg 34%
13:00 +40°C° 0 mm 5 mps 741 mmHg 31%
14:00 +37°C° 0 mm 5 mps 741 mmHg 37%
15:00 +36°C° 0 mm 4 mps 741 mmHg 43%
16:00 +34°C° 0 mm 4 mps 741 mmHg 48%
17:00 +33°C° 0 mm 4 mps 741 mmHg 52%
18:00 +30°C° 0 mm 3 mps 742 mmHg 55%
19:00 +29°C° 0 mm 3 mps 743 mmHg 59%
20:00 +29°C° 0 mm 3 mps 743 mmHg 60%
21:00 +28°C° 0 mm 3 mps 744 mmHg 62%
22:00 +27°C° 0 mm 3 mps 744 mmHg 63%
23:00 +27°C° 0 mm 2 mps 744 mmHg 64%

3 August, Tuesday

Time Temperature Precipitation Wind Pressure Humidity
00:00 +27°C° 0 mm 2 mps 744 mmHg 64%
01:00 +26°C° 0 mm 2 mps 744 mmHg 65%
02:00 +25°C° 0 mm 2 mps 744 mmHg 67%
03:00 +25°C° 0 mm 2 mps 743 mmHg 68%
04:00 +24°C° 0 mm 1 mps 743 mmHg 69%
05:00 +25°C° 0 mm 1 mps 744 mmHg 68%
06:00 +25°C° 0 mm 1 mps 744 mmHg 66%
07:00 +26°C° 0 mm 1 mps 744 mmHg 65%
08:00 +29°C° 0 mm 2 mps 744 mmHg 55%
09:00 +33°C° 0 mm 3 mps 744 mmHg 45%
10:00 +36°C° 0 mm 4 mps 744 mmHg 35%
11:00 +37°C° 0 mm 4 mps 743 mmHg 32%
12:00 +38°C° 0 mm 4 mps 743 mmHg 30%
13:00 +40°C° 0 mm 5 mps 742 mmHg 27%
14:00 +40°C° 0 mm 5 mps 741 mmHg 29%
15:00 +39°C° 0 mm 5 mps 741 mmHg 31%
16:00 +38°C° 0 mm 4 mps 740 mmHg 32%
17:00 +36°C° 0 mm 4 mps 741 mmHg 38%
18:00 +34°C° 0 mm 3 mps 741 mmHg 43%
19:00 +30°C° 0 mm 2 mps 742 mmHg 48%
20:00 +29°C° 0 mm 2 mps 743 mmHg 53%
21:00 +28°C° 0 mm 2 mps 743 mmHg 57%
22:00 +26°C° 0 mm 1 mps 744 mmHg 62%
23:00 +26°C° 0 mm 1 mps 744 mmHg 63%

4 August, Wednesday

Time Temperature Precipitation Wind Pressure Humidity
00:00 +25°C° 0 mm 1 mps 744 mmHg 64%
01:00 +25°C° 0 mm 1 mps 744 mmHg 65%
02:00 +25°C° 0 mm 1 mps 744 mmHg 65%
03:00 +24°C° 0 mm 1 mps 744 mmHg 66%
04:00 +24°C° 0 mm 1 mps 743 mmHg 66%
05:00 +24°C° 0 mm 1 mps 744 mmHg 65%
06:00 +25°C° 0 mm 1 mps 744 mmHg 63%
07:00 +26°C° 0 mm 1 mps 745 mmHg 61%
08:00 +29°C° 0 mm 1 mps 745 mmHg 52%
09:00 +32°C° 0 mm 2 mps 745 mmHg 43%
10:00 +36°C° 0 mm 3 mps 745 mmHg 34%
11:00 +37°C° 0 mm 3 mps 744 mmHg 31%
12:00 +40°C° 0 mm 4 mps 743 mmHg 29%
13:00 +41°C° 0 mm 4 mps 742 mmHg 26%
14:00 +41°C° 0 mm 4 mps 741 mmHg 27%
15:00 +40°C° 0 mm 4 mps 741 mmHg 27%
16:00 +39°C° 0 mm 3 mps 740 mmHg 28%
17:00 +36°C° 0 mm 3 mps 741 mmHg 36%
18:00 +34°C° 0 mm 2 mps 741 mmHg 44%
19:00 +30°C° 0 mm 1 mps 742 mmHg 52%
20:00 +29°C° 0 mm 1 mps 743 mmHg 56%
21:00 +28°C° 0 mm 1 mps 743 mmHg 59%
22:00 +27°C° 0 mm 1 mps 744 mmHg 62%
23:00 +27°C° 0.1 mm 1 mps 744 mmHg 65%
Show more